Regional Weather Roundup
Issued by NWS

Home | Current Version | Previous Version | Text Only | Print | Product List | Glossary On
Versions: 1 2 3 4 5 6 7 8 9 10 11 12 13 14 15 16 17 18 19 20 21 22 23 24 25 26 27 28 29 30 31 32 33 34 35 36 37 38 39 40 41 42 43 44 45 46 47 48 49 50
000
ASUS44 KOUN 282010
RWROK

WEATHER ROUNDUP FOR OKLAHOMA
NATIONAL WEATHER SERVICE NORMAN OK
200 PM CST WED JAN 28 2015

NOTE: "FAIR" INDICATES FEW OR NO CLOUDS BELOW 12,000 FEET WITH NO
      SIGNIFICANT WEATHER AND/OR OBSTRUCTIONS TO VISIBILITY.

OKZ001>007-009>012-014-015-017-282100-
NORTHWEST OKLAHOMA AND THE PANHANDLE

CITY           SKY/WX    TMP DP  RH WIND       PRES   REMARKS
GAGE           PTSUNNY   70  32  24 N15       29.91F
ENID/WOODRING  PTSUNNY   75  39  27 SW15      29.81F
$$

OKZ016-021>023-033>039-044-045-282100-
SOUTHWEST OKLAHOMA

CITY           SKY/WX    TMP DP  RH WIND       PRES   REMARKS
LAWTON/REGL    PTSUNNY   75  44  33 S15G24    29.91F
LAWTON/FT SILL PTSUNNY   75  46  35 S14       29.90F
FREDERICK      PTSUNNY   77  43  29 SW20      29.90F
CLINTON        PTSUNNY   71  43  36 SW13      29.90F
HOBART         PTSUNNY   76  43  30 SW18G24   29.89F
ALTUS AFB      SUNNY     80  44  27 S18G25    29.89F
$$

OKZ018>020-024>031-282100-
CENTRAL OKLAHOMA

CITY           SKY/WX    TMP DP  RH WIND       PRES   REMARKS
OKLAHOMA CITY  PTSUNNY   78  41  26 SW21G26   29.90F
OKC/WILEY POST PTSUNNY   76  42  29 SW18G25   29.89F
OKC/TINKER AFB PTSUNNY   77  42  28 S22       29.89F
STILLWATER     PTSUNNY   80  38  22 SW20G25   29.85F
GUTHRIE        PTSUNNY   78  39  24 SW17G24   29.86F
$$

OKZ008-013-054>072-282100-
NORTHEAST OKLAHOMA

CITY           SKY/WX    TMP DP  RH WIND       PRES   REMARKS
TULSA          CLOUDY    78  37  22 S24G30    29.86F
TULSA/JONES    MOSUNNY   78  34  20 S16G29    29.87F
PONCA CITY     PTSUNNY   78  38  23 SW20G30   29.82F
BARTLESVILLE   PTSUNNY   78  36  21 SW23G31   29.85F
MUSKOGEE       MOSUNNY   68  41  37 SE16G24   29.94F
$$

OKZ032-040>043-046>053-073>077-282100-
SOUTH CENTRAL/SOUTHEAST OKLAHOMA

CITY           SKY/WX    TMP DP  RH WIND       PRES   REMARKS
ARDMORE/DWNTWN MOSUNNY   77  39  25 S9G16     29.96F
MCALESTER      MOSUNNY   75  41  29 S15G23    29.96F
$$



USA.gov is the U.S. government's official web portal to all federal, state and local government web resources and services.